Location: Sternwarte_Laufen
(47.9344°N, 12.9346°E)
Time: 16:34:19
(UTC+02:00)

ISS - Pass Details

Date: 09 May 2026
Orbit: 414 x 424 km, 51.6° (Epoch: 21 May)

Event Time Altitude Azimuth Distance (km) Brightness Sun altitude
Rises 23:16:49 0° 260° (W) 2,347 0.3 -20.2°
Reaches altitude 10° 23:18:56 10° 265° (W) 1,487 -0.7 -20.4°
Maximum altitude 23:22:13 57° 345° (NNW) 496 -3.2 -20.6°
Enters shadow 23:24:19 20° 59° (ENE) 1,024 -1.8 -20.8°
